CXO

Last updated on Sept. 29, 2020, 5:51 a.m. UTC

1 25867U 99040B   20274.94727117  .00000711  00000-0  00000+0 0  9991
2 25867  60.6113 264.1167 7900442 227.0581   0.6286  0.37805536 20590
UTC
Height (km)
Latitude
Longitude
Inclination
Orbital Period
UTC large
Height (km)
Speed (km/s)
/
Latitude / Longitude
Inclination (degrees)
Orbital Period (minutes)
Azimuth
Elevation
Range (km)
Doppler Factor
iOS Compass Heading
iOS Angle

Next 30 passes for location: Hong Kong

Rise time Rise Azimuth (degrees) Set time Set Azimuth (degrees) Duration Max altitude (degrees)

No matching passes for this satellites